Regional Weather Roundup
Issued by NWS Wakefield, VA

Home | Current Version | Previous Version | Graphics & Text | Print | Product List | Glossary On
Versions: 1 2 3 4 5 6 7 8 9 10 11 12 13 14 15 16 17 18 19 20 21 22 23 24 25 26 27 28 29 30 31 32 33 34 35 36 37 38 39 40 41 42 43 44 45 46 47 48 49 50
177
ASUS41 KAKQ 130815
RWRAKQ

REGIONAL WEATHER ROUNDUP
NATIONAL WEATHER SERVICE WAKEFIELD VA
300 AM EST WED DEC 13 2017

Note: "fair" indicates few or no clouds below 12,000 feet with no
significant weather and/or obstructions to visibility. * = Denotes
station may not report precipitation (e.g., rain,snow,etc.),
thunder or fog.

VAZ042-051-052>054-056-130900-
NORTHERN VIRGINIA

CITY           SKY/WX    TMP DP  RH WIND       PRES   REMARKS
WASH NATIONAL  PTCLDY    23   1  38 NW20G28   29.80R WCI   8
DULLES         PTCLDY    21   2  43 NW21G31   29.78R WCI   5
FORT BELVOIR   CLEAR     23  -1  35 NW15G28   29.80R WCI  10
QUANTICO       CLEAR     24  -1  33 NW20G28   29.83R WCI  10
FREDERICKSBRG* PTCLDY    25   8  48 NW13G18   29.81R WCI  13
STAFFORD*      CLEAR     22   2  42 NW16G25   29.84R WCI   8
WARRENTON      MOCLDY    22  -1  36 NW6       29.79R
CULPEPER*      CLOUDY    24   0  35 NW7       29.80S
MANASSAS*      PTCLDY    21   4  47 NW18G24   29.81R WCI   6
LEESBURG*      MOCLDY    23   5  46 NW16      29.79R WCI  10
WINCHESTER     MOCLDY    19   0  42 W14G24    29.77R WCI   6
FRONT ROYAL*   MOSUNNY   21   0  39 MISG      29.76R
LURAY*         CLOUDY    23   5  46 NW8       29.76R
$$

VAZ048-049-060>072-079>083-130900-
CENTRAL AND SOUTH CENTRAL VIRGINIA

CITY           SKY/WX    TMP DP  RH WIND       PRES   REMARKS
RICHMOND       MOCLDY    28   5  37 W5        29.80R
CHESTERFIELD*  NOT AVBL
PETERSBURG*    CLEAR     19   9  63 SW3       29.82R
HANOVER        CLOUDY    25   5  42 CALM      29.81R
TAPPAHANNOCK*  NOT AVBL
QUINTON*       FAIR      24   7  49 CALM      29.79R
CHARLOTTSVILLE PTCLDY    26   2  35 W10G21    29.78R WCI  16
GORDONSVILLE*  PTSUNNY   25   5  43 W6        29.78R
ORANGE*        CLOUDY    25   7  46 CALM      29.79R
LOUISA*        PTCLDY    23   3  42 W6        29.83R
BUMPASS*       CLOUDY    23   1  37 CALM      29.79R
FARMVILLE*     CLEAR     27   7  42 CALM      29.80R
CREWE*         FAIR      25   8  48 W5        29.80R
FORT PICKETT*  NOT AVBL
CHASE CITY*    FAIR      26   6  43 W5        29.83R
CLARKSVILLE*   PTSUNNY   27   9  46 W3        29.84S
SOUTH HILL*    CLEAR     26   7  43 W6        29.89R
LAWRENCEVILLE* FAIR      24   6  46 SW3       29.82R
EMPORIA*       PTCLDY    27   7  43 CALM      29.85R
$$

VAZ088>098-130900-
SOUTHEAST VIRGINIA

CITY           SKY/WX    TMP DP  RH WIND       PRES   REMARKS
NORFOLK        PTCLDY    29   5  36 NW10G21   29.80R WCI  20
VIRGINIA BEACH PTCLDY    27   5  39 NW20      29.79R WCI  13
NORFOLK NAVAL  PTCLDY    29   6  38 NW22G28   29.82R WCI  15
WEST POINT*    PTCLDY   N/A N/A N/A NW6       29.82R
SALUDA*        FAIR      27   8  44 NW10G26   29.79R WCI  17
NEWPORT NEWS   CLEAR     27   5  39 NW15      29.80R WCI  15
LANGLEY AFB    CLEAR     26   6  43 NW14      29.80R WCI  14
FORT EUSTIS    CLEAR     27   8  43 NW13      29.77R WCI  16
WILLIAMSBURG*  PTCLDY    27   9  46 NW7       29.81R
HR EXEC AP*    FAIR      27   7  42 W7        29.82R
FRANKLIN*      CLEAR     25   6  44 W5        29.83R
US460-WAKEFLD  CLEAR     26   5  40 VRB3      29.82R
$$

VAZ020-022-025-037-045-130900-
WEST CENTRAL AND SOUTHWEST VIRGINIA

CITY           SKY/WX    TMP DP  RH WIND       PRES   REMARKS
STAUNTON*      CLOUDY    21   3  45 W8        29.78R
WAYNESBORO*    PTSUNNY   20   1  44 W6G17     29.73R
HOT SPRINGS VA CLOUDY    10   1  64 W31G45    29.56R WCI -12
LYNCHBURG      CLEAR     23   4  44 NW9G22    29.79R
DANVILLE       CLEAR     25  10  53 W7        29.86R
SOUTH BOSTON*  FAIR      26   6  43 CALM      29.85R
MARTINSVILLE   CLEAR     23   6  48 NW8       29.87R
ROANOKE        CLOUDY    23   9  55 NW16      29.82R WCI  10
BLACKSBURG     CLOUDY    19   6  58 W12G23    29.80S WCI   6
DUBLIN*        CLEAR     20   6  54 NW24G32   29.79R WCI   3
MARION*        CLOUDY    19   2  49 W22G36    29.80R WCI   2
HILLSVILLE*    CLEAR     17   4  57 W15G29    29.72R WCI   2
RICHLANDS*     FAIR      16   4  60 W7        29.86R
WISE*          CLEAR     18   7  62 W6        29.89R
ABINGDON*      CLEAR     22   5  48 W5        29.92R
$$

MDZ021>025-VAZ099-100-130900-
SOUTHERN MARYLAND AND THE DELMARVA PENINSULA

CITY           SKY/WX    TMP DP  RH WIND       PRES   REMARKS
PATUXENT RIVER PTCLDY    24   1  36 NW32G40   29.78R WCI   6
BAY BRIDGE APT MOCLDY    23   7  50 W17G23    29.76R WCI   9
LEONARDTOWN    CLEAR     23   0  36 NW20G30   29.79R WCI   8
DOVER          CLEAR     22   4  46 W15       29.70R WCI   9
GEORGETOWN     PTCLDY    24   2  38 NW15G25   29.72R WCI  11
EASTON         MOCLDY    25   5  42 NW15G25   29.78R WCI  12
CAMBRIDGE      MOCLDY    23   1  39 NW20G39   29.76R WCI   8
SALISBURY      PTCLDY    24   5  44 NW18G31   29.73R WCI  10
OCEAN CITY     MOCLDY    24   7  48 NW21G36   29.72R WCI   9
WALLOPS ISLAND CLOUDY    25   6  44 NW14G28   29.74R WCI  13
ACCOMACK*      CLOUDY    27   8  43 NW28G37   29.76R WCI  12
$$

NCZ012>017-030>032-130900-
NORTH CENTRAL AND EASTERN NORTH CAROLINA

CITY           SKY/WX    TMP DP  RH WIND       PRES   REMARKS
ROANOKE RAPIDS FAIR      30   9  40 NW10G18   29.85R WCI  21
RALEIGH        CLEAR     27   8  44 CALM      29.88R
ELIZABETH CITY CLEAR     29   5  36 NW14G23   29.82R WCI  18
AHOSKIE*       CLEAR     27   7  43 CALM      29.85R
EDENTON*       CLEAR     32   8  36 NW15G21   29.83R WCI  21
CURRITUCK*     CLEAR     29   5  36 W13G23    29.81R WCI  19
KILL DEVIL HLS PTCLDY    31  10  40 NW12G23   29.77R WCI  22
MANTEO         MOCLDY    32  13  45 NW14G29   29.80R WCI  22
CAPE HATTERAS  CLEAR     34  12  40 NW17G33   29.80R WCI  23
TARBORO*       NOT AVBL
GOLDSBORO      CLEAR     30  10  42 NW9       29.87R
WASHINGTON     PTCLDY    29  12  47 NW6       29.86R
GREENVILLE     PTCLDY    32  12  43 NW7       29.88R
NEW BERN       CLEAR     30  15  53 NW9       29.87R
WILMINGTON     CLEAR     33  14  45 NW8       29.89R
$$

VAZ048-130900-
ELSEWHERE

CITY           SKY/WX    TMP DP  RH WIND       PRES   REMARKS
HARRISBURG PA  PTCLDY    21   6  52 W14       29.67S WCI   8
BALTIMORE      PTCLDY    21   4  47 W17G26    29.74S WCI   7
ANNAPOLIS      PTCLDY    23   8  52 W15G26    29.76R WCI  10
ANDREWS AFB    PTCLDY    22   1  39 W16G23    29.75R WCI   8
PHILADELPHIA   PTCLDY    22   0  38 W17G25    29.66S WCI   8
HENDERSON NC   CLEAR     24   4  42 W5        29.84S
GREENSBORO     PTCLDY    24   9  52 NW8       29.84R
ROCKY MOUNT    PTCLDY    29   8  41 NW10G18   29.87R WCI  20
$$

VAZ100-130900-
MARINE

STATION/POSITION TIME  TEMP    WIND        PRES    WAVE   SWELL
                       AIR SEA DIR/SP/G            HT/PER HT/PER
                 (UTC) (F)     (DEG/KT/KT) (MB)    (FT/S) (FT/S)
BRANDYWINE LGT   0742   26     320/ 28/ 35 1005.1R
CAPE MAY NJ      0736   26 42  320/ 23/ 32 1004.1R
LEWES DE         0742   26 45  300/ 24/ 30 1005.5R
15NM E FENWICK I 0750   28 54  290/ 29/ 35 1004.6R   7/ 7   2/27
OCEAN-CITY-INLET 0742   27 47  320/ 17/ 23 1006.3R
WACHAPREAGUE VA  0742   27 41  280/  5/ 15 1007.5R
THOMAS POINT MD  0800   24 46  310/ 27/ 33   N/A
GOOSES REEF MD   0800   26 47  330/ 19/ 25 1008.6    3/ 3
COVE POINT MD    0742   24     320/ 20/ 27 1008.6R
SOLOMONS ISLAND  0742   25 46  300/ 15/ 25 1008.1R
BISHOPS HEAD MD  0742   26 38  290/ 25/ 30 1008.2R
PINEY POINT MD   0742          360/ 28/ 31   N/A
POTOMAC MD       0800   28 48  330/ 25/ 33 1007.5    3/ 3
CAMBRIDGE MD     0742   24 44              1008.1R
LEWISETTA VA     0742   27 43  340/ 17/ 25 1008.6R
RAPPAHANNOCK LGT 0742          310/ 26/ 31 1008.7R
STINGRAY PT      0750   28     350/ 16/ 23 1008.5R
YORK RVR RNG VA  0742   29     340/ 17/ 20 1009.3R
YORKTOWN VA      0742   29 49  290/ 14/ 18 1008.6R
JAMESTOWN VA     0800      46  330/ 12/ 16   N/A
DOMINION TERM VA 0742   31     320/ 19/ 25 1008.9R
KIPTOPEKE VA     0742      45  340/ 26/ 32   N/A
CAPE HENRY VA    0742   29     300/ 28/ 37   N/A
WILLOUBY STN VA  0742          320/ 18/ 21 1008.9R
S CRANEY ISL VA  0742   29     290/ 12/ 19 1008.7R
CAPE HENRY BUOY  0800      54                N/A     7/ 5
1ST LANDING BUOY 0800   31 49  320/ 25/ 31 1008.3    4/ 4
CAPE CHARLES BUO 0751      53                N/A     5/ 5
64NM E OF VA BCH 0750   36 59  310/ 29/ 37 1005.4R  11/ 8
DUCK PIER NC     0742   31 55  320/ 23/ 29 1007.8R
44100 DUCK FRF   0745      55                N/A     7/ 7
44056 DUCK FRF   0800      56                N/A     6/ 6
OREGON INLET NC  0742   33 46  290/ 17/ 24 1008.0R
HATTERAS NC      0742   35 54  310/ 31/ 38 1008.7R
DIAMOND SHLS NC  0750   40 71  300/ 29/ 37 1008.1R  10/ 6
CAPE LOOKOUT NC  0800          320/ 24/ 27 1010.8R
$$




USA.gov is the U.S. government's official web portal to all federal, state and local government web resources and services.